AUA644 LKPR-LOWW

Flight info

Callsign AUA644
Flight time 0h 31m
Altitude 25000
Route VOZ DCT LANUX LANUX7W
Aircraft A20N/M-SDE2E3FGHIRWXY/LB1

Departure

Time 2026-05-06 18:23
Airport Václav Havel Airport Prague (LKPR)

Arrival

Time 2026-05-06 18:54
Airport Vienna International Airport (LOWW)
Time Latitude Longitude Altitude Speed Heading
2026-05-06 17:45 50.10690 14.26369 1173 ft 0 kts 214°
2026-05-06 18:07 50.10693 14.26373 1172 ft 2 kts 214°
2026-05-06 18:08 50.10723 14.26406 1171 ft 8 kts 237°
2026-05-06 18:08 50.10730 14.26447 1171 ft 9 kts 310°
2026-05-06 18:08 50.10734 14.26439 1171 ft 0 kts 309°
2026-05-06 18:11 50.10760 14.26382 1175 ft 12 kts 303°
2026-05-06 18:11 50.10813 14.26259 1173 ft 15 kts 311°
2026-05-06 18:11 50.10889 14.26118 1172 ft 19 kts 302°
2026-05-06 18:12 50.10951 14.25933 1169 ft 17 kts 253°
2026-05-06 18:12 50.10864 14.25804 1172 ft 18 kts 216°
2026-05-06 18:12 50.10758 14.25696 1171 ft 19 kts 216°
2026-05-06 18:12 50.10674 14.25557 1176 ft 15 kts 272°
2026-05-06 18:13 50.10719 14.25401 1173 ft 18 kts 303°
2026-05-06 18:13 50.10778 14.25239 1167 ft 15 kts 296°
2026-05-06 18:13 50.10788 14.25208 1170 ft 0 kts 298°
2026-05-06 18:15 50.10791 14.25200 1169 ft 2 kts 298°
2026-05-06 18:15 50.10801 14.25170 1170 ft 4 kts 294°
2026-05-06 18:15 50.10811 14.25110 1171 ft 7 kts 282°
2026-05-06 18:15 50.10813 14.25098 1171 ft 0 kts 277°
2026-05-06 18:17 50.10813 14.25097 1171 ft 0 kts 277°
2026-05-06 18:17 50.10813 14.25093 1171 ft 0 kts 276°
2026-05-06 18:21 50.10817 14.25038 1171 ft 14 kts 276°
2026-05-06 18:22 50.10813 14.24786 1167 ft 30 kts 261°
2026-05-06 18:22 50.10772 14.24621 1168 ft 5 kts 175°
2026-05-06 18:22 50.10731 14.24676 1169 ft 9 kts 125°
2026-05-06 18:22 50.10649 14.24845 1170 ft 45 kts 127°
2026-05-06 18:23 50.10329 14.25510 1182 ft 107 kts 127°
2026-05-06 18:23 50.09782 14.26642 1220 ft 152 kts 127°
2026-05-06 18:23 50.09126 14.27929 1745 ft 153 kts 128°
2026-05-06 18:23 50.08447 14.29265 2276 ft 161 kts 126°
2026-05-06 18:24 50.07767 14.30679 2850 ft 164 kts 125°
2026-05-06 18:24 50.07071 14.32168 3272 ft 177 kts 126°
2026-05-06 18:24 50.06325 14.33774 3756 ft 189 kts 126°
2026-05-06 18:24 50.05540 14.35484 4339 ft 200 kts 127°
2026-05-06 18:25 50.04669 14.37303 4821 ft 222 kts 129°
2026-05-06 18:25 50.03672 14.39318 5339 ft 246 kts 129°
2026-05-06 18:25 50.02584 14.41519 6010 ft 265 kts 130°
2026-05-06 18:25 50.01449 14.43839 6884 ft 273 kts 130°
2026-05-06 18:26 50.00291 14.46217 7825 ft 279 kts 130°
2026-05-06 18:26 49.99066 14.48583 8770 ft 282 kts 138°
2026-05-06 18:26 49.97565 14.50556 9700 ft 284 kts 150°
2026-05-06 18:26 49.95819 14.52091 10344 ft 298 kts 156°
2026-05-06 18:27 49.93918 14.53655 10721 ft 321 kts 155°
2026-05-06 18:27 49.91886 14.55339 11136 ft 342 kts 155°
2026-05-06 18:27 49.89719 14.57145 11402 ft 365 kts 155°
2026-05-06 18:27 49.87442 14.59053 12000 ft 375 kts 155°
2026-05-06 18:28 49.85140 14.60986 12821 ft 379 kts 155°
2026-05-06 18:28 49.82815 14.62935 13608 ft 383 kts 155°
2026-05-06 18:28 49.80453 14.64911 14345 ft 386 kts 155°
2026-05-06 18:28 49.78080 14.66893 15112 ft 389 kts 155°
2026-05-06 18:29 49.75684 14.68888 15817 ft 394 kts 155°
2026-05-06 18:29 49.73231 14.70924 16206 ft 406 kts 155°
2026-05-06 18:29 49.70727 14.73002 16867 ft 410 kts 155°
2026-05-06 18:29 49.68210 14.75093 17609 ft 412 kts 156°
2026-05-06 18:30 49.65676 14.77195 18233 ft 416 kts 156°
2026-05-06 18:30 49.63116 14.79315 18836 ft 419 kts 156°
2026-05-06 18:30 49.60543 14.81443 19438 ft 421 kts 156°
2026-05-06 18:30 49.57989 14.83557 20383 ft 414 kts 156°
2026-05-06 18:31 49.55445 14.85659 21051 ft 416 kts 156°
2026-05-06 18:31 49.52925 14.87909 21613 ft 423 kts 152°
2026-05-06 18:31 49.50556 14.90561 22189 ft 429 kts 148°
2026-05-06 18:31 49.48147 14.93392 22763 ft 432 kts 148°
2026-05-06 18:32 49.45780 14.96167 23290 ft 436 kts 148°
2026-05-06 18:32 49.43358 14.98997 23755 ft 439 kts 148°
2026-05-06 18:32 49.40919 15.01838 24201 ft 442 kts 148°
2026-05-06 18:32 49.38457 15.04698 24567 ft 445 kts 148°
2026-05-06 18:33 49.35987 15.07564 24689 ft 446 kts 148°
2026-05-06 18:33 49.33510 15.10435 24713 ft 446 kts 148°
2026-05-06 18:33 49.31037 15.13298 24710 ft 446 kts 148°
2026-05-06 18:33 49.28554 15.16166 24709 ft 446 kts 148°
2026-05-06 18:34 49.26077 15.19024 24657 ft 444 kts 148°
2026-05-06 18:34 49.23609 15.21868 24363 ft 444 kts 148°
2026-05-06 18:34 49.21145 15.24703 24001 ft 442 kts 148°
2026-05-06 18:34 49.18700 15.27514 23605 ft 437 kts 148°
2026-05-06 18:35 49.16283 15.30288 22961 ft 433 kts 148°
2026-05-06 18:35 49.13887 15.33035 22196 ft 429 kts 148°
2026-05-06 18:35 49.11511 15.35755 21426 ft 425 kts 148°
2026-05-06 18:35 49.09159 15.38444 20680 ft 421 kts 148°
2026-05-06 18:36 49.06828 15.41105 19939 ft 417 kts 148°
2026-05-06 18:36 49.04523 15.43734 19237 ft 413 kts 148°
2026-05-06 18:36 49.02226 15.46350 18532 ft 409 kts 148°
2026-05-06 18:36 48.99955 15.48934 17814 ft 406 kts 148°
2026-05-06 18:37 48.97705 15.51502 17053 ft 403 kts 146°
2026-05-06 18:37 48.96336 15.53427 16563 ft 405 kts 138°
2026-05-06 18:37 48.94486 15.56641 15845 ft 402 kts 134°
2026-05-06 18:37 48.92725 15.59927 15153 ft 399 kts 133°
2026-05-06 18:38 48.90985 15.63157 14821 ft 393 kts 133°
2026-05-06 18:38 48.89216 15.66358 14720 ft 397 kts 134°
2026-05-06 18:38 48.87419 15.69546 14705 ft 397 kts 134°
2026-05-06 18:38 48.85613 15.72715 14704 ft 396 kts 135°
2026-05-06 18:39 48.83813 15.75857 14538 ft 393 kts 135°
2026-05-06 18:39 48.82020 15.78977 14085 ft 390 kts 134°
2026-05-06 18:39 48.80242 15.82066 13495 ft 387 kts 134°
2026-05-06 18:40 48.76732 15.88154 12066 ft 379 kts 134°
2026-05-06 18:40 48.75010 15.91138 11385 ft 376 kts 134°
2026-05-06 18:40 48.73306 15.94117 10800 ft 370 kts 133°
2026-05-06 18:40 48.71660 15.97067 10432 ft 360 kts 133°
2026-05-06 18:41 48.70078 15.99876 10279 ft 343 kts 134°
2026-05-06 18:41 48.68541 16.02527 10199 ft 326 kts 135°
2026-05-06 18:41 48.67084 16.05019 10212 ft 307 kts 135°
2026-05-06 18:41 48.65709 16.07379 10098 ft 293 kts 135°
2026-05-06 18:42 48.64370 16.09630 9875 ft 285 kts 135°
2026-05-06 18:42 48.63050 16.11886 9405 ft 287 kts 135°
2026-05-06 18:42 48.61721 16.14125 9008 ft 285 kts 135°
2026-05-06 18:42 48.60404 16.16335 8639 ft 282 kts 135°
2026-05-06 18:43 48.59117 16.18534 8343 ft 277 kts 134°
2026-05-06 18:43 48.57894 16.20720 8165 ft 268 kts 133°
2026-05-06 18:43 48.56676 16.22873 7618 ft 273 kts 134°
2026-05-06 18:43 48.55423 16.25060 7101 ft 277 kts 134°
2026-05-06 18:44 48.54160 16.27260 6668 ft 278 kts 134°
2026-05-06 18:44 48.52893 16.29443 6367 ft 274 kts 134°
2026-05-06 18:44 48.51661 16.31606 6056 ft 271 kts 134°
2026-05-06 18:44 48.50438 16.33748 5725 ft 267 kts 134°
2026-05-06 18:45 48.49234 16.35892 5276 ft 269 kts 134°
2026-05-06 18:45 48.48025 16.38044 4988 ft 265 kts 134°
2026-05-06 18:45 48.46878 16.40115 4995 ft 249 kts 134°
2026-05-06 18:45 48.45803 16.42039 5027 ft 231 kts 136°
2026-05-06 18:46 48.44633 16.43507 5012 ft 209 kts 156°
2026-05-06 18:46 48.43376 16.44320 5065 ft 185 kts 165°
2026-05-06 18:46 48.42189 16.44924 5013 ft 176 kts 167°
2026-05-06 18:46 48.41033 16.45446 5004 ft 174 kts 169°
2026-05-06 18:47 48.39837 16.45919 5040 ft 182 kts 171°
2026-05-06 18:47 48.38606 16.46370 5095 ft 188 kts 171°
2026-05-06 18:47 48.37310 16.46861 5113 ft 194 kts 169°
2026-05-06 18:47 48.36028 16.47473 5059 ft 186 kts 166°
2026-05-06 18:48 48.34844 16.48104 5011 ft 180 kts 169°
2026-05-06 18:48 48.33649 16.48613 4945 ft 177 kts 169°
2026-05-06 18:48 48.32484 16.49116 4937 ft 172 kts 168°
2026-05-06 18:48 48.31362 16.49632 4834 ft 168 kts 169°
2026-05-06 18:49 48.30221 16.50091 4589 ft 171 kts 173°
2026-05-06 18:49 48.29040 16.50527 4249 ft 180 kts 171°
2026-05-06 18:49 48.27806 16.50999 3779 ft 183 kts 170°
2026-05-06 18:49 48.26604 16.51487 3522 ft 174 kts 168°
2026-05-06 18:50 48.25467 16.52036 3303 ft 170 kts 166°
2026-05-06 18:50 48.24920 16.52314 3213 ft 169 kts 166°
2026-05-06 18:50 48.23974 16.52791 3097 ft 165 kts 167°
2026-05-06 18:50 48.22885 16.53280 2957 ft 159 kts 170°
2026-05-06 18:51 48.21866 16.53656 2843 ft 143 kts 172°
2026-05-06 18:51 48.20932 16.54008 2520 ft 132 kts 169°
2026-05-06 18:51 48.20101 16.54377 2334 ft 118 kts 167°
2026-05-06 18:51 48.19358 16.54755 2150 ft 109 kts 166°
2026-05-06 18:52 48.18629 16.55084 1980 ft 110 kts 169°
2026-05-06 18:52 48.17894 16.55372 1836 ft 108 kts 171°
2026-05-06 18:52 48.17185 16.55641 1730 ft 105 kts 169°
2026-05-06 18:52 48.16491 16.55964 1639 ft 104 kts 168°
2026-05-06 18:53 48.15778 16.56255 1479 ft 108 kts 169°
2026-05-06 18:53 48.15039 16.56517 1284 ft 111 kts 167°
2026-05-06 18:53 48.14277 16.56826 1153 ft 117 kts 165°
2026-05-06 18:53 48.13497 16.57176 969 ft 115 kts 166°
2026-05-06 18:54 48.12741 16.57494 818 ft 110 kts 166°
2026-05-06 18:54 48.11998 16.57810 653 ft 112 kts 166°
2026-05-06 18:54 48.11304 16.58102 617 ft 83 kts 165°
2026-05-06 18:54 48.10907 16.58267 615 ft 48 kts 167°
2026-05-06 18:55 48.10643 16.58262 610 ft 24 kts 198°
2026-05-06 18:55 48.10546 16.58193 610 ft 0 kts 228°
2026-05-06 18:56 48.10545 16.58172 610 ft 5 kts 275°
2026-05-06 18:56 48.10591 16.58127 610 ft 11 kts 342°
2026-05-06 18:56 48.10674 16.58091 623 ft 15 kts 346°
2026-05-06 18:56 48.10774 16.58050 616 ft 16 kts 344°
2026-05-06 18:57 48.10877 16.58006 613 ft 12 kts 342°
2026-05-06 18:57 48.10905 16.57993 623 ft 0 kts 342°
2026-05-06 18:57 48.10930 16.57982 619 ft 8 kts 343°
2026-05-06 18:57 48.11018 16.57944 619 ft 18 kts 344°
2026-05-06 18:58 48.11154 16.57887 610 ft 22 kts 345°
2026-05-06 18:58 48.11315 16.57821 614 ft 25 kts 344°
2026-05-06 18:58 48.11479 16.57750 623 ft 24 kts 344°
2026-05-06 18:58 48.11638 16.57683 610 ft 21 kts 345°
2026-05-06 18:59 48.11787 16.57625 618 ft 19 kts 338°
2026-05-06 18:59 48.11825 16.57485 616 ft 16 kts 251°
2026-05-06 18:59 48.11818 16.57324 624 ft 16 kts 294°
2026-05-06 18:59 48.11880 16.57186 616 ft 14 kts 316°
2026-05-06 19:00 48.11925 16.57061 620 ft 13 kts 295°
2026-05-06 19:00 48.11966 16.56942 622 ft 9 kts 296°
2026-05-06 19:00 48.11975 16.56915 623 ft 0 kts 296°
2026-05-06 19:01 48.11973 16.56896 620 ft 4 kts 245°
2026-05-06 19:01 48.11932 16.56860 610 ft 9 kts 206°
2026-05-06 19:02 48.11883 16.56824 610 ft 5 kts 205°
2026-05-06 19:02 48.11873 16.56817 610 ft 0 kts 205°